CAPE
810 833 761 724 694 678 642 571 538 504 423 612 196 413 209 247 290 357 466 704 874 986 864 611 527 426 315 392 398 346 406 482 554 601 531 342 134 308 309 195 124 128 96 120 139 249 389 485 514 440 359 145 26 14 10 1 0 0 1 0 1 1 1 3 1 2 3 3 3 4 7 4 4 6 7 8 6 7 4 8 14 15 14 14 13
769 760 687 665 662 663 631 632 576 499 420 434 297 111 173 166 243 310 349 500 823 958 772 564 357 398 404 392 392 391 400 478 588 624 483 342 358 561 371 261 418 512 333 266 166 165 385 590 586 557 540 385 163 25 5 0 0 0 1 1 0 0 1 1 2 3 4 6 6 6 4 5 5 6 6 5 6 7 5 6 12 17 15 10 13
751 722 655 682 681 608 613 635 557 571 449 346 381 135 43 55 177 213 239 624 796 876 684 409 406 181 334 363 413 404 424 442 564 603 567 551 482 455 559 735 632 619 401 232 216 236 308 511 646 720 637 537 499 385 117 11 2 0 0 0 0 0 0 1 2 3 3 3 4 4 6 5 5 7 5 4 6 4 6 6 5 4 9 12 11
716 696 693 714 707 643 532 549 464 458 399 332 320 68 0 0 24 113 176 520 645 761 610 416 318 162 219 385 407 420 464 476 528 582 598 601 651 729 734 696 674 440 345 406 390 343 438 672 865 831 873 797 727 603 442 77 3 1 0 0 0 0 0 1 3 3 3 2 3 3 2 5 5 5 4 5 5 5 5 4 4 6 5 6 9
686 701 701 688 669 644 511 418 342 257 228 21 290 281 310 351 306 253 261 422 517 556 454 382 251 148 63 103 311 476 499 489 500 558 593 608 661 572 383 349 464 543 609 919 973 871 789 844 803 609 870 769 769 806 687 376 116 16 0 0 0 0 0 1 2 4 3 2 1 3 4 5 5 3 1 3 3 2 3 4 4 3 5 7 5
701 701 686 625 585 520 358 441 671 571 398 451 624 489 375 385 353 328 299 364 356 338 298 245 207 40 45 178 311 509 491 441 483 498 506 583 508 381 382 380 417 528 713 906 759 713 792 714 589 538 731 640 727 693 430 438 403 196 76 10 2 2 2 1 0 1 1 1 1 1 3 4 3 3 2 0 1 1 2 2 3 4 2 3 6
713 689 662 522 396 364 423 513 649 684 742 558 636 620 501 411 380 294 301 324 282 216 171 146 164 44 98 267 322 460 491 446 295 398 404 467 403 425 402 404 479 546 555 597 866 653 614 620 614 710 840 778 720 781 692 704 731 393 137 41 20 27 24 29 9 0 0 0 1 0 1 3 2 1 0 0 0 0 1 2 2 2 3 2 5
732 704 643 399 302 325 448 630 792 990 713 601 466 503 484 450 419 309 338 310 273 242 250 184 135 144 125 288 336 396 474 404 313 371 296 364 417 399 391 434 498 533 703 609 621 706 744 878 940 871 947 957 724 648 791 552 712 587 357 179 100 72 56 53 41 18 1 0 0 1 1 0 1 1 0 0 0 0 0 0 1 2 3 4 5
800 732 473 230 308 293 351 938 906 862 773 619 558 533 477 434 403 410 387 400 356 397 279 203 109 121 94 254 332 396 468 434 406 316 230 316 378 371 399 444 579 950 606 595 582 644 815 688 557 644 866 953 1007 650 777 830 694 435 531 420 291 152 140 89 85 114 75 9 0 0 0 0 1 2 3 2 0 0 0 0 0 1 3 5 5
700 582 302 257 318 301 697 894 862 748 619 504 600 567 575 446 420 400 370 297 226 94 164 150 108 62 154 300 368 395 476 469 414 327 295 306 336 372 400 490 624 625 514 510 552 586 430 290 527 697 785 875 1118 685 675 854 561 690 506 493 504 337 268 228 226 144 118 84 49 6 1 0 0 0 2 3 3 1 2 1 1 2 2 4 4
563 411 293 260 200 460 590 709 798 684 598 704 600 594 476 468 515 454 375 323 205 154 155 122 80 63 193 331 396 471 490 502 431 344 284 316 359 440 520 599 619 515 436 460 389 246 0 0 96 402 500 838 1115 1279 922 768 597 744 566 562 577 397 363 304 342 256 189 77 99 80 22 11 6 4 54 21 5 3 12 10 12 5 3 3 4
416 312 268 211 212 441 472 578 548 516 443 601 501 657 499 413 387 361 326 267 234 219 181 129 106 75 218 400 463 491 526 443 493 342 375 408 488 436 542 556 535 446 392 279 165 0 0 0 229 284 344 436 598 840 976 914 791 805 756 515 513 662 534 387 349 318 355 137 166 138 114 73 71 81 80 36 31 7 38 34 22 19 11 5 5
398 231 487 548 478 559 581 554 474 360 276 295 524 735 558 437 408 338 260 242 160 6 141 98 141 193 209 368 372 442 503 452 448 343 331 427 409 445 447 483 478 545 504 77 1 2 0 57 163 250 310 372 424 476 702 724 779 651 687 802 778 789 505 502 368 534 227 189 187 218 97 125 103 114 113 187 112 166 138 98 54 41 23 11 8
442 456 630 739 555 347 488 499 392 330 267 398 554 599 620 460 390 389 389 276 138 52 131 86 117 169 162 185 238 150 251 265 348 267 225 357 471 644 595 635 560 589 514 177 321 241 166 321 308 251 322 345 346 366 413 466 546 738 638 686 978 803 550 408 560 534 345 231 305 216 166 179 128 68 195 238 175 157 160 163 161 92 57 26 22
490 486 510 610 493 509 660 540 466 385 412 426 308 599 545 387 360 388 359 280 177 80 65 1 52 146 159 192 119 77 20 202 140 127 191 310 457 632 584 493 499 457 584 453 302 302 261 322 299 144 224 264 263 273 344 447 600 750 654 587 628 797 687 475 372 552 288 242 218 241 150 94 49 31 29 28 14 15 30 50 105 129 127 69 33
370 297 373 576 525 523 621 576 640 576 495 603 566 674 560 413 317 395 299 152 97 208 70 178 5 4 50 131 87 62 67 149 123 202 268 275 184 343 378 350 479 575 490 313 388 341 216 366 274 0 0 0 219 209 232 336 616 854 706 589 621 642 667 524 438 272 348 259 198 54 7 5 0 0 0 0 9 43 98 150 163 109 129 43 2
257 447 464 436 456 407 520 485 651 585 576 634 632 658 544 395 349 426 344 132 89 38 104 198 118 59 94 6 21 20 40 51 126 169 148 279 194 245 99 207 339 382 399 462 491 434 325 316 0 0 192 161 160 177 194 216 202 335 408 534 514 478 365 318 398 371 294 72 10 0 0 0 0 0 0 0 3 10 30 70 84 73 13 3 4
372 539 841 586 564 600 599 596 692 586 505 610 649 663 581 443 402 416 410 146 57 7 272 347 233 104 93 0 2 81 11 3 120 61 117 245 210 163 80 221 420 479 357 410 464 302 9 2 0 0 0 0 0 0 0 0 0 0 25 98 232 162 98 94 89 103 40 5 0 0 0 0 0 0 0 0 0 4 3 4 6 5 0 0 0
545 568 890 1112 1153 1174 1008 830 590 561 496 498 528 512 480 488 517 537 479 427 137 219 283 422 101 20 324 372 44 185 0 2 3 7 131 144 139 133 118 245 329 289 311 325 0 0 1 0 0 0 0 0 0 0 0 0 0 0 0 0 6 10 17 64 56 13 2 0 0 0 0 0 0 0 0 0 0 0 0 0 0 0 0 0 0
548 720 822 898 1016 1153 933 801 718 464 433 479 534 485 475 445 528 658 596 472 341 283 312 450 189 103 490 533 701 314 0 0 116 120 81 60 71 125 195 188 183 196 175 1 1 0 0 0 0 0 0 0 0 0 0 0 0 0 0 0 0 0 0 2 4 0 0 0 0 0 0 0 0 0 0 0 0 0 0 0 0 0 0 0 0
615 676 838 964 1056 1132 956 798 645 678 543 609 708 682 548 455 498 512 620 525 401 354 246 420 104 289 490 474 498 183 0 0 0 0 0 0 36 43 34 0 0 0 101 176 180 252 0 0 0 0 0 0 0 0 0 0 0 0 0 0 0 0 0 0 0 0 0 0 0 0 0 0 0 0 0 0 0 0 0 0 0 0 0 0 0
877 996 1029 1087 1151 1117 978 796 775 838 816 723 729 664 419 315 395 511 487 554 512 406 417 403 346 396 519 408 328 225 0 0 0 0 0 0 0 0 0 0 0 0 119 159 196 211 0 0 0 0 0 0 0 0 0 0 0 0 0 0 0 0 0 0 0 0 0 0 0 0 0 0 0 0 0 0 0 0 0 0 0 0 0 0 0
1000 1041 1151 1156 1172 1028 923 811 685 769 793 534 544 588 435 353 307 430 516 588 627 469 387 414 440 455 457 348 114 186 1 0 0 0 0 0 0 0 0 0 0 0 31 91 0 0 0 0 0 0 0 0 0 0 0 0 0 0 0 0 0 0 0 0 0 0 0 0 0 0 0 0 0 0 0 0 0 0 0 0 0 0 0 0 0
1005 1006 1054 1109 1050 872 702 645 533 617 648 672 689 566 463 421 348 445 447 466 703 674 420 442 484 484 446 214 0 0 0 0 180 0 0 0 0 0 0 0 0 0 0 0 0 0 0 0 0 0 0 0 0 0 0 0 0 0 0 0 0 0 0 0 0 0 0 0 0 0 0 1 0 0 1 1 0 0 0 0 0 0 0 0 0
932 999 966 965 835 667 654 661 789 780 656 655 543 519 508 404 396 416 400 427 642 715 609 465 514 506 464 338 0 0 0 0 10 0 89 0 0 0 0 0 0 0 0 0 0 0 0 0 0 0 0 0 0 0 0 0 0 0 0 0 0 0 0 0 0 0 0 0 0 0 0 0 0 0 0 0 0 0 0 0 0 0 0 0 0
980 1101 1112 933 808 809 778 812 753 637 587 555 529 514 547 438 427 449 639 579 655 649 596 492 523 529 473 395 5 0 0 0 0 0 67 0 0 0 0 0 0 0 0 0 0 0 0 0 0 0 0 0 0 0 0 0 0 0 0 0 0 0 0 0 0 0 0 0 0 0 0 0 0 0 0 0 0 0 0 0 0 0 0 0 0
950 1139 1127 1000 692 952 970 917 704 590 563 531 427 395 533 471 445 537 640 678 636 612 531 443 430 508 486 143 0 0 0 0 0 0 0 0 0 0 0 0 0 0 0 0 0 0 0 0 0 0 0 0 0 0 0 0 0 0 0 0 0 0 0 0 0 0 0 0 0 0 0 0 0 0 0 0 0 0 0 0 0 0 0 0 0
979 1089 971 870 817 987 1051 990 832 666 576 573 448 493 485 494 482 760 765 759 685 617 638 688 528 509 514 210 0 1 0 0 0 0 186 0 0 0 0 0 0 0 0 0 0 0 0 0 0 0 0 0 0 0 0 0 0 0 0 0 0 0 0 0 0 0 0 0 0 0 0 0 0 0 0 0 0 0 0 0 0 0 0 0 0
1048 1025 943 941 1123 1092 952 802 807 807 753 605 487 480 450 542 541 817 858 803 815 738 721 763 753 650 517 344 5 0 0 278 46 113 238 0 0 0 0 0 0 0 0 0 0 0 0 0 0 0 0 0 0 0 0 0 0 0 0 0 0 0 0 0 0 0 0 0 0 0 0 0 0 0 0 0 0 0 0 0 0 0 0 0 0
1093 1141 965 1115 1147 994 868 1012 964 910 850 688 575 525 509 696 625 826 952 928 868 733 675 676 685 671 594 471 353 0 0 21 94 22 246 186 0 0 0 0 0 0 0 0 0 0 0 0 0 0 0 0 0 0 0 0 0 0 0 0 0 0 0 0 0 0 0 0 0 0 0 0 0 0 0 0 0 0 0 0 0 0 0 0 0
1010 1067 985 1078 1064 914 907 986 1015 920 844 751 641 582 555 707 726 836 955 919 804 699 610 564 672 771 664 468 440 122 0 0 19 55 14 0 0 0 1 0 0 0 0 0 0 0 0 0 0 0 0 0 0 0 0 0 0 0 0 0 0 0 0 0 0 0 0 0 0 0 0 0 0 0 0 0 0 0 0 0 0 0 0 0 0
901 904 800 826 939 974 916 914 954 901 866 829 707 614 507 670 701 696 745 719 723 634 562 542 714 829 728 684 715 606 395 0 14 200 450 164 0 0 0 0 0 0 0 0 0 0 0 0 0 0 0 0 0 0 0 0 0 0 0 0 0 0 0 0 0 0 0 0 0 0 0 0 0 0 0 0 0 0 0 0 0 0 0 0 0
855 862 763 827 872 939 892 898 889 869 783 718 656 649 584 574 558 482 542 672 736 583 396 549 672 748 715 714 827 704 543 403 32 248 567 702 445 55 162 0 0 0 0 0 0 0 0 0 0 0 0 0 0 0 0 0 0 0 0 0 0 0 0 0 0 0 0 0 0 0 0 0 0 0 0 0 0 0 0 0 0 0 0 0 0
601 623 480 556 752 774 816 849 808 745 663 613 588 564 552 455 496 566 585 616 690 711 504 483 595 710 795 744 836 808 541 483 428 512 705 865 654 247 174 190 19 0 0 0 0 0 0 0 0 0 0 0 0 0 0 0 0 0 0 0 0 0 0 0 0 0 0 0 0 0 0 0 0 0 0 0 0 0 0 0 0 0 0 0 0
499 492 416 596 639 680 798 814 738 669 600 540 562 512 467 496 535 616 638 626 638 609 541 354 447 556 657 798 881 910 707 663 574 614 826 876 702 388 190 123 94 0 0 0 0 0 0 0 0 0 0 0 0 0 0 0 0 0 0 0 0 0 0 0 0 0 0 0 0 0 0 0 0 0 0 0 0 0 0 0 0 0 0 0 0
0 0 458 526 468 508 584 615 662 611 542 532 533 481 463 518 565 576 607 581 583 579 490 420 458 514 599 631 823 872 795 771 686 682 734 701 524 390 221 175 123 0 0 0 0 0 0 0 0 0 0 0 0 0 0 0 0 0 0 0 0 0 0 0 0 0 0 0 0 0 0 0 0 0 0 0 0 0 0 0 0 0 0 0 0
0 0 0 149 462 520 539 521 510 524 537 550 516 453 506 542 624 588 582 549 598 600 511 486 586 594 658 750 781 721 902 880 862 817 704 642 427 273 190 202 170 50 42 22 0 0 0 0 0 0 0 0 0 0 0 0 0 0 0 0 0 0 0 0 0 0 0 0 0 0 0 0 0 0 0 0 0 0 0 0 0 0 0 0 0
262 0 0 0 0 366 477 531 514 473 464 492 495 514 571 583 622 582 530 520 594 620 616 622 691 680 1016 1050 918 871 922 878 838 730 651 478 372 322 229 162 101 51 45 12 0 0 0 0 0 0 0 0 0 0 0 0 0 0 0 0 0 0 0 0 0 0 0 0 0 0 0 0 0 0 0 0 0 0 0 0 0 0 0 0 0
0 0 0 0 0 0 0 316 479 264 0 0 226 504 507 532 573 544 512 486 525 514 544 643 793 852 1034 1114 966 944 946 913 685 589 393 318 316 257 187 95 66 48 30 0 0 0 0 0 0 0 0 0 0 0 0 0 0 0 0 0 0 0 0 0 0 0 0 0 0 0 0 0 0 0 0 0 0 0 0 0 0 0 0 0 0
0 0 0 0 0 0 0 0 0 0 0 0 0 252 367 426 514 588 573 502 474 408 392 646 738 844 982 1038 1031 988 1006 896 735 452 283 269 198 219 110 0 0 20 0 0 0 0 0 0 0 0 0 0 0 0 0 0 0 0 0 0 0 0 0 0 0 0 0 0 0 0 0 0 0 0 0 0 0 0 0 0 0 0 0 0 0
0 0 0 0 0 0 0 0 0 0 0 0 0 0 0 50 56 55 86 545 491 124 65 580 730 921 880 921 1012 938 940 776 502 412 382 162 103 159 0 0 0 0 0 0 0 0 0 0 0 0 0 0 0 0 0 0 0 0 0 0 0 0 0 0 0 0 0 0 0 0 0 0 0 0 0 0 0 0 0 0 0 0 0 0 0
0 0 0 0 0 0 0 0 0 0 0 0 0 0 0 0 0 0 0 0 0 0 0 0 552 600 602 712 751 668 598 502 413 377 330 166 19 0 0 0 0 0 0 0 0 0 0 0 0 0 0 0 0 0 0 0 0 0 0 0 0 0 0 0 0 0 0 0 0 0 0 0 0 0 0 0 0 0 0 0 0 0 0 0 0
0 0 0 0 0 0 0 0 0 0 0 0 0 0 0 0 0 0 0 0 0 0 48 436 499 511 505 464 367 421 404 383 408 373 346 265 58 0 0 0 0 0 0 0 0 0 0 0 0 0 0 0 0 0 0 0 0 0 0 0 0 0 0 0 0 0 0 0 0 0 0 0 0 0 0 0 0 0 0 0 0 0 0 0 0
0 0 0 0 0 0 0 0 0 0 0 0 0 0 0 0 0 0 0 0 0 0 0 140 125 136 0 0 0 73 94 0 0 125 196 242 134 41 0 0 0 0 0 0 0 0 0 0 0 0 0 0 25 35 12 0 0 0 0 0 0 0 0 0 0 0 0 0 0 0 0 0 0 0 0 0 0 0 0 0 0 0 0 0 0
0 0 0 0 0 0 0 0 0 0 0 0 0 0 0 0 0 0 0 0 0 0 0 0 0 0 0 0 0 0 0 0 0 0 0 125 129 82 74 0 0 0 0 0 0 0 0 0 0 0 0 0 0 0 0 0 5 0 0 0 0 0 0 0 0 0 0 0 0 0 0 3 0 0 0 0 0 0 0 0 0 0 0 0 0
0 0 0 0 0 0 0 0 0 0 0 0 0 0 0 4 8 0 0 2 0 0 0 0 0 0 0 0 0 0 0 0 0 0 0 64 92 90 85 81 73 37 0 0 0 0 0 0 0 0 0 0 0 0 0 0 0 1 0 5 40 0 0 0 45 91 123 18 0 0 0 25 76 0 0 0 0 0 0 0 0 0 0 0 0
0 0 0 0 0 0 0 0 0 0 0 0 0 0 1 0 0 0 0 5 1 0 0 0 0 0 0 0 0 0 0 0 0 0 0 41 66 42 0 62 51 0 0 0 0 0 0 0 0 0 0 0 0 36 103 112 118 95 102 110 102 95 0 0 0 0 0 0 0 0 0 0 0 0 0 0 0 0 8 193 236 68 170 0 21
0 0 3 0 0 0 0 0 0 0 0 0 0 0 0 1 0 0 0 0 0 0 0 0 0 0 0 0 0 0 0 0 0 0 0 0 0 0 0 0 0 0 0 0 0 0 0 0 0 0 0 0 0 70 99 98 120 118 99 96 94 0 0 0 0 0 0 0 35 0 0 0 0 0 0 0 0 0 0 0 200 228 227 230 113
0 1 3 2 0 0 0 0 0 0 0 0 0 0 0 0 0 0 0 0 0 0 0 0 0 0 0 0 0 0 0 0 0 0 0 0 0 0 0 0 0 0 0 0 0 89 134 109 58 179 52 189 206 202 190 168 158 143 130 99 116 45 0 0 0 0 0 0 0 0 0 0 0 0 0 0 0 0 0 162 296 280 246 174 88
0 1 3 2 1 0 0 0 0 0 0 0 0 0 10 19 24 0 0 0 0 0 0 0 0 0 0 0 0 0 0 0 0 0 0 0 0 0 0 0 0 0 0 0 0 0 0 0 0 0 16 134 144 171 179 183 176 158 150 140 35 0 0 0 0 0 0 0 0 0 0 0 0 0 0 0 91 89 135 178 187 236 267 215 30
0 0 2 4 2 0 0 0 0 0 0 0 0 0 0 57 62 58 42 26 23 26 22 18 14 14 32 41 26 26 0 0 0 0 0 0 0 0 0 0 0 0 0 0 0 0 0 0 0 0 0 0 0 0 0 0 0 83 20 33 65 0 0 0 0 0 0 0 0 0 1 1 3 1 58 52 69 0 0 0 0 0 0 0 0
Wind_Speed
24 23 24 24 24 21 18 16 16 15 16 16 16 15 16 17 18 17 15 15 16 17 15 14 12 10 12 13 14 14 14 12 10 10 10 12 12 13 17 16 16 17 nan 14 14 17 16 17 16 16 16 16 nan nan nan nan nan nan nan nan nan nan nan nan nan nan nan nan nan nan nan nan nan nan nan nan nan nan nan nan nan nan nan nan nan
23 24 24 24 24 20 17 15 15 16 16 15 15 17 16 17 18 18 17 17 18 14 16 16 15 12 12 13 13 13 14 12 12 13 12 12 12 11 17 17 14 15 15 13 14 15 16 16 16 16 16 15 15 nan nan nan nan nan nan nan nan nan nan nan nan nan nan nan nan nan nan nan nan nan nan nan nan nan nan nan nan nan nan nan nan
23 23 23 24 23 21 17 17 17 15 15 14 14 15 nan nan 17 17 17 19 15 14 17 19 17 14 12 14 13 14 13 12 12 14 14 12 11 10 12 14 13 14 13 12 13 13 13 13 13 14 15 15 14 14 13 nan nan nan nan nan nan nan nan nan nan nan nan nan nan nan nan nan nan nan nan nan nan nan nan nan nan nan nan nan nan
23 22 23 23 22 21 18 17 16 16 16 15 14 nan nan nan nan 19 19 17 17 18 19 20 17 13 12 13 11 14 13 13 12 12 12 11 11 11 10 10 12 13 11 8 9 9 11 11 12 10 11 12 13 14 13 nan nan nan nan nan nan nan nan nan nan nan nan nan nan nan nan nan nan nan nan nan nan nan nan nan nan nan nan nan nan
21 21 22 22 21 21 19 16 17 18 17 nan 15 16 19 19 22 20 18 18 20 21 20 19 17 12 nan 12 12 13 12 12 12 12 12 10 10 11 10 9 9 12 11 9 10 10 9 9 8 8 8 9 9 10 11 11 10 nan nan nan nan nan nan nan nan nan nan nan nan nan nan nan nan nan nan nan nan nan nan nan nan nan nan nan nan
20 20 21 21 21 21 21 20 18 20 20 21 21 20 19 21 20 19 16 17 20 20 19 17 14 nan nan 14 14 13 12 13 12 12 12 11 11 12 10 9 10 11 9 10 9 8 8 7 7 7 8 7 8 7 8 9 10 11 nan nan nan nan nan nan nan nan nan nan nan nan nan nan nan nan nan nan nan nan nan nan nan nan nan nan nan
19 21 21 21 21 23 22 20 21 20 21 23 23 21 21 20 19 20 17 18 20 18 16 16 16 nan nan 15 15 14 13 13 12 11 12 11 12 12 10 9 10 10 10 7 7 6 8 9 10 11 11 9 7 6 5 7 8 11 12 nan nan nan nan nan nan nan nan nan nan nan nan nan nan nan nan nan nan nan nan nan nan nan nan nan nan
17 20 23 22 23 24 22 20 23 23 24 24 23 22 19 19 20 21 20 19 20 17 16 16 16 17 17 16 15 15 14 14 14 11 12 13 13 12 11 10 10 9 9 8 7 6 7 9 11 12 13 12 8 7 6 6 7 9 10 10 nan nan nan nan nan nan nan nan nan nan nan nan nan nan nan nan nan nan nan nan nan nan nan nan nan
17 19 22 23 24 24 23 25 28 28 27 24 22 20 18 18 20 19 20 18 17 16 15 15 15 16 nan 16 14 14 14 14 13 12 13 14 12 12 10 9 9 10 9 8 7 6 8 10 12 12 13 13 12 8 6 6 6 6 7 9 11 11 12 nan nan 15 nan nan nan nan nan nan nan nan nan nan nan nan nan nan nan nan nan nan nan
17 16 17 23 25 23 23 25 28 28 28 23 21 18 18 18 19 17 16 18 15 nan 15 14 15 nan 17 16 14 12 13 14 13 11 12 13 12 11 9 8 9 8 8 6 6 7 7 9 11 12 12 12 12 9 7 5 5 5 8 8 11 12 13 13 13 14 15 nan nan nan nan nan nan nan nan nan nan nan nan nan nan nan nan nan nan
16 14 9 13 19 20 18 19 22 21 21 21 17 18 20 18 18 17 17 16 15 14 15 16 nan nan 15 14 13 12 12 14 14 9 10 11 11 10 8 7 8 7 7 6 6 6 nan nan nan 10 11 14 13 14 11 9 9 8 9 9 10 10 13 13 14 14 14 nan nan nan nan nan nan nan nan nan nan nan nan nan nan nan nan nan nan
14 13 11 11 14 17 18 17 16 16 18 18 12 14 19 19 17 18 17 17 17 14 16 17 17 nan 14 15 14 14 14 13 12 9 8 10 11 10 8 7 8 7 6 6 7 nan nan nan 10 11 11 14 16 13 12 11 9 9 9 11 12 12 12 14 13 14 13 14 13 12 12 nan nan nan nan nan nan nan nan nan nan nan nan nan nan
10 12 10 10 14 15 17 17 16 16 16 12 9 10 15 17 17 16 16 17 15 nan 14 nan 17 16 14 14 14 14 13 10 8 8 8 9 10 10 9 8 7 7 6 nan nan nan nan nan 10 11 12 12 12 14 13 12 10 11 11 12 13 13 14 14 13 14 15 13 12 11 nan 11 10 11 11 10 9 11 11 nan nan nan nan nan nan
12 12 12 12 14 14 16 15 15 15 13 13 11 10 14 16 17 17 15 15 14 nan 12 nan 14 14 13 12 13 15 12 10 8 10 9 10 9 10 10 9 9 7 11 13 10 10 9 10 11 13 12 11 11 10 10 10 10 13 14 14 15 16 16 17 17 17 16 16 14 14 15 16 16 nan 17 18 17 16 16 14 14 nan nan nan nan
11 13 15 14 13 13 13 14 14 14 15 14 12 10 12 15 15 16 16 15 14 nan nan nan nan 13 14 14 11 nan nan 9 9 10 10 10 9 10 11 12 10 7 11 10 8 9 10 11 13 12 11 11 10 10 10 10 11 14 14 16 17 18 19 19 19 19 19 18 19 20 19 nan nan nan nan nan nan nan nan nan 17 18 20 nan nan
14 13 14 14 12 10 10 12 13 15 15 14 9 8 13 15 15 14 15 15 nan 10 nan 11 nan nan nan 10 nan nan nan 7 8 9 9 9 8 10 10 10 9 10 12 9 6 9 12 12 12 nan nan nan 10 10 11 10 14 15 15 14 17 20 21 21 21 21 21 21 21 nan nan nan nan nan nan nan nan nan nan 19 20 22 22 nan nan
14 12 13 11 10 10 10 12 14 16 16 15 9 8 11 14 14 13 12 14 nan nan 9 9 7 nan nan nan nan nan nan nan 10 9 9 9 9 11 nan 6 7 9 7 8 9 11 13 13 nan nan 11 10 11 11 11 10 10 9 11 14 14 16 18 19 19 19 20 nan nan nan nan nan nan nan nan nan nan nan nan nan nan nan nan nan nan
14 13 15 13 10 9 10 11 13 16 15 15 12 12 13 14 12 12 12 11 nan nan 11 9 6 7 nan nan nan nan nan nan 10 nan 10 10 10 11 nan 10 12 9 7 9 12 14 nan nan nan nan nan nan nan nan nan nan nan nan nan nan 12 11 nan nan nan 16 nan nan nan nan nan nan nan nan nan nan nan nan nan nan nan nan nan nan nan
14 15 18 14 11 11 11 11 14 17 18 16 13 12 14 14 13 11 11 11 12 12 10 8 9 nan 9 10 nan 12 nan nan nan nan 13 13 13 13 13 12 10 8 7 9 nan nan nan nan nan nan nan nan nan nan nan nan nan nan nan nan nan nan nan nan nan nan nan nan nan nan nan nan nan nan nan nan nan nan nan nan nan nan nan nan nan
14 15 18 12 10 11 12 14 17 19 18 15 14 15 15 14 12 10 12 10 9 10 9 8 8 7 11 12 13 15 nan nan 16 13 nan nan nan 14 13 12 9 9 10 nan nan nan nan nan nan nan nan nan nan nan nan nan nan nan nan nan nan nan nan nan nan nan nan nan nan nan nan nan nan nan nan nan nan nan nan nan nan nan nan nan nan
14 15 15 12 11 12 15 18 19 18 16 15 16 16 13 12 11 10 9 9 8 9 10 7 9 10 14 14 16 16 nan nan nan nan nan nan nan nan nan nan nan nan 11 11 12 13 nan nan nan nan nan nan nan nan nan nan nan nan nan nan nan nan nan nan nan nan nan nan nan nan nan nan nan nan nan nan nan nan nan nan nan nan nan nan nan
14 16 16 14 13 15 19 18 17 16 14 14 17 16 12 10 9 9 9 10 9 9 7 9 10 11 12 14 16 17 nan nan nan nan nan nan nan nan nan nan nan nan 10 11 13 13 nan nan nan nan nan nan nan nan nan nan nan nan nan nan nan nan nan nan nan nan nan nan nan nan nan nan nan nan nan nan nan nan nan nan nan nan nan nan nan
15 15 16 15 18 19 20 18 16 14 12 14 15 14 12 10 10 10 10 10 9 8 10 11 13 13 13 15 17 16 nan nan nan nan nan nan nan nan nan nan nan nan nan nan nan nan nan nan nan nan nan nan nan nan nan nan nan nan nan nan nan nan nan nan nan nan nan nan nan nan nan nan nan nan nan nan nan nan nan nan nan nan nan nan nan
14 15 14 17 19 18 20 17 15 13 12 13 14 15 14 13 13 11 11 11 11 11 12 12 13 13 14 14 nan nan nan nan 15 nan nan nan nan nan nan nan nan nan nan nan nan nan nan nan nan nan nan nan nan nan nan nan nan nan nan nan nan nan nan nan nan nan nan nan nan nan nan nan nan nan nan nan nan nan nan nan nan nan nan nan nan
12 12 12 18 18 19 15 14 13 13 13 13 15 16 15 15 14 13 13 12 10 11 12 11 12 14 13 15 nan nan nan nan nan nan nan nan nan nan nan nan nan nan nan nan nan nan nan nan nan nan nan nan nan nan nan nan nan nan nan nan nan nan nan nan nan nan nan nan nan nan nan nan nan nan nan nan nan nan nan nan nan nan nan nan nan
10 10 15 22 16 14 14 12 13 14 14 14 16 17 17 16 15 13 13 11 11 12 12 13 13 14 16 18 nan nan nan nan nan nan nan nan nan nan nan nan nan nan nan nan nan nan nan nan nan nan nan nan nan nan nan nan nan nan nan nan nan nan nan nan nan nan nan nan nan nan nan nan nan nan nan nan nan nan nan nan nan nan nan nan nan
9 11 20 20 16 13 13 14 14 13 14 15 16 18 18 17 15 13 13 14 13 13 14 14 14 14 15 15 nan nan nan nan nan nan nan nan nan nan nan nan nan nan nan nan nan nan nan nan nan nan nan nan nan nan nan nan nan nan nan nan nan nan nan nan nan nan nan nan nan nan nan nan nan nan nan nan nan nan nan nan nan nan nan nan nan
11 12 19 17 17 15 15 14 15 14 14 15 16 17 18 17 15 13 14 15 15 14 13 13 12 13 13 14 nan nan nan nan nan nan 14 nan nan nan nan nan nan nan nan nan nan nan nan nan nan nan nan nan nan nan nan nan nan nan nan nan nan nan nan nan nan nan nan nan nan nan nan nan nan nan nan nan nan nan nan nan nan nan nan nan nan
11 13 17 17 18 18 16 15 15 14 14 16 17 18 19 18 16 16 16 16 15 13 12 11 11 13 13 13 nan nan nan 13 nan 15 17 nan nan nan nan nan nan nan nan nan nan nan nan nan nan nan nan nan nan nan nan nan nan nan nan nan nan nan nan nan nan nan nan nan nan nan nan nan nan nan nan nan nan nan nan nan nan nan nan nan nan
14 14 16 17 17 18 17 15 15 16 15 18 19 19 19 19 18 17 17 16 15 14 11 12 12 12 13 12 13 nan nan nan nan nan 15 16 nan nan nan nan nan nan nan nan nan nan nan nan nan nan nan nan nan nan nan nan nan nan nan nan nan nan nan nan nan nan nan nan nan nan nan nan nan nan nan nan nan nan nan nan nan nan nan nan nan
15 14 15 17 18 17 16 16 16 16 17 19 20 19 19 19 18 17 17 15 14 12 12 12 12 12 12 12 13 13 nan nan nan nan nan nan nan nan nan nan nan nan nan nan nan nan nan nan nan nan nan nan nan nan nan nan nan nan nan nan nan nan nan nan nan nan nan nan nan nan nan nan nan nan nan nan nan nan nan nan nan nan nan nan nan
14 15 15 16 17 17 15 16 16 16 16 19 20 19 18 18 18 16 15 15 13 12 12 12 12 12 12 13 13 12 11 nan nan 11 13 13 nan nan nan nan nan nan nan nan nan nan nan nan nan nan nan nan nan nan nan nan nan nan nan nan nan nan nan nan nan nan nan nan nan nan nan nan nan nan nan nan nan nan nan nan nan nan nan nan nan
15 16 16 15 15 15 16 16 17 16 17 19 19 19 18 18 18 16 15 14 13 13 12 11 13 13 12 12 12 12 12 11 nan 10 13 13 14 nan 15 nan nan nan nan nan nan nan nan nan nan nan nan nan nan nan nan nan nan nan nan nan nan nan nan nan nan nan nan nan nan nan nan nan nan nan nan nan nan nan nan nan nan nan nan nan nan
14 16 16 15 15 15 17 18 18 17 17 19 19 19 18 17 17 16 14 13 14 14 13 12 14 14 13 12 12 12 13 11 11 11 13 14 15 16 16 17 nan nan nan nan nan nan nan nan nan nan nan nan nan nan nan nan nan nan nan nan nan nan nan nan nan nan nan nan nan nan nan nan nan nan nan nan nan nan nan nan nan nan nan nan nan
12 14 15 15 15 16 18 19 18 17 16 17 18 18 18 17 15 14 13 13 14 14 13 13 14 15 14 13 12 13 15 14 13 13 15 15 15 14 15 16 nan nan nan nan nan nan nan nan nan nan nan nan nan nan nan nan nan nan nan nan nan nan nan nan nan nan nan nan nan nan nan nan nan nan nan nan nan nan nan nan nan nan nan nan nan
nan nan 14 15 15 16 19 19 18 16 16 17 17 16 16 17 15 13 13 13 14 14 13 13 13 13 13 14 13 14 15 14 13 13 15 16 14 14 15 14 13 nan nan nan nan nan nan nan nan nan nan nan nan nan nan nan nan nan nan nan nan nan nan nan nan nan nan nan nan nan nan nan nan nan nan nan nan nan nan nan nan nan nan nan nan
nan nan nan 16 16 17 18 18 18 18 16 17 17 16 16 16 15 14 13 13 13 13 13 12 12 13 14 13 13 14 15 14 13 13 14 14 13 14 14 14 12 nan nan nan nan nan nan nan nan nan nan nan nan nan nan nan nan nan nan nan nan nan nan nan nan nan nan nan nan nan nan nan nan nan nan nan nan nan nan nan nan nan nan nan nan
17 nan nan nan nan 17 19 19 20 20 19 16 16 17 17 17 16 14 13 11 11 12 13 13 13 13 13 12 14 14 15 13 12 13 14 13 14 15 14 14 13 nan nan nan nan nan nan nan nan nan nan nan nan nan nan nan nan nan nan nan nan nan nan nan nan nan nan nan nan nan nan nan nan nan nan nan nan nan nan nan nan nan nan nan nan
nan nan nan nan nan nan nan 24 23 22 nan nan 19 18 17 18 17 15 14 12 11 11 12 12 12 13 13 13 14 15 14 14 13 12 14 14 15 16 15 nan nan nan nan nan nan nan nan nan nan nan nan nan nan nan nan nan nan nan nan nan nan nan nan nan nan nan nan nan nan nan nan nan nan nan nan nan nan nan nan nan nan nan nan nan nan
nan nan nan nan nan nan nan nan nan nan nan nan nan 21 20 19 18 17 15 14 13 12 13 14 16 15 14 14 15 16 16 14 14 15 17 17 18 19 20 nan nan nan nan nan nan nan nan nan nan nan nan nan nan nan nan nan nan nan nan nan nan nan nan nan nan nan nan nan nan nan nan nan nan nan nan nan nan nan nan nan nan nan nan nan nan
nan nan nan nan nan nan nan nan nan nan nan nan nan nan nan nan nan nan nan 17 16 17 nan 17 17 16 16 18 18 18 17 16 17 17 18 19 21 23 nan nan nan nan nan nan nan nan nan nan nan nan nan nan nan nan nan nan nan nan nan nan nan nan nan nan nan nan nan nan nan nan nan nan nan nan nan nan nan nan nan nan nan nan nan nan nan
nan nan nan nan nan nan nan nan nan nan nan nan nan nan nan nan nan nan nan nan nan nan nan nan 19 20 21 22 21 21 21 22 22 23 24 22 nan nan nan nan nan nan nan nan nan nan nan nan nan nan nan nan nan nan nan nan nan nan nan nan nan nan nan nan nan nan nan nan nan nan nan nan nan nan nan nan nan nan nan nan nan nan nan nan nan
nan nan nan nan nan nan nan nan nan nan nan nan nan nan nan nan nan nan nan nan nan nan nan 23 22 22 23 24 23 25 25 25 26 29 29 30 nan nan nan nan nan nan nan nan nan nan nan nan nan nan nan nan nan nan nan nan nan nan nan nan nan nan nan nan nan nan nan nan nan nan nan nan nan nan nan nan nan nan nan nan nan nan nan nan nan
nan nan nan nan nan nan nan nan nan nan nan nan nan nan nan nan nan nan nan nan nan nan nan 26 25 24 nan nan nan nan nan nan nan 28 32 36 38 nan nan nan nan nan nan nan nan nan nan nan nan nan nan nan nan nan nan nan nan nan nan nan nan nan nan nan nan nan nan nan nan nan nan nan nan nan nan nan nan nan nan nan nan nan nan nan nan
nan nan nan nan nan nan nan nan nan nan nan nan nan nan nan nan nan nan nan nan nan nan nan nan nan nan nan nan nan nan nan nan nan nan nan 34 37 nan nan nan nan nan nan nan nan nan nan nan nan nan nan nan nan nan nan nan nan nan nan nan nan nan nan nan nan nan nan nan nan nan nan nan nan nan nan nan nan nan nan nan nan nan nan nan nan
nan nan nan nan nan nan nan nan nan nan nan nan nan nan nan nan nan nan nan nan nan nan nan nan nan nan nan nan nan nan nan nan nan nan nan nan nan nan nan nan nan nan nan nan nan nan nan nan nan nan nan nan nan nan nan nan nan nan nan nan nan nan nan nan nan nan 40 nan nan nan nan nan nan nan nan nan nan nan nan nan nan nan nan nan nan
nan nan nan nan nan nan nan nan nan nan nan nan nan nan nan nan nan nan nan nan nan nan nan nan nan nan nan nan nan nan nan nan nan nan nan nan nan nan nan nan nan nan nan nan nan nan nan nan nan nan nan nan nan nan 36 37 39 nan 38 37 36 nan nan nan nan nan nan nan nan nan nan nan nan nan nan nan nan nan nan 47 48 nan 48 nan nan
nan nan nan nan nan nan nan nan nan nan nan nan nan nan nan nan nan nan nan nan nan nan nan nan nan nan nan nan nan nan nan nan nan nan nan nan nan nan nan nan nan nan nan nan nan nan nan nan nan nan nan nan nan nan nan nan 38 39 nan nan nan nan nan nan nan nan nan nan nan nan nan nan nan nan nan nan nan nan nan nan 52 52 52 54 54
nan nan nan nan nan nan nan nan nan nan nan nan nan nan nan nan nan nan nan nan nan nan nan nan nan nan nan nan nan nan nan nan nan nan nan nan nan nan nan nan nan nan nan nan nan nan 41 42 nan 41 nan 41 41 40 42 42 43 42 42 nan 42 nan nan nan nan nan nan nan nan nan nan nan nan nan nan nan nan nan nan 57 58 59 59 58 nan
nan nan nan nan nan nan nan nan nan nan nan nan nan nan nan nan nan nan nan nan nan nan nan nan nan nan nan nan nan nan nan nan nan nan nan nan nan nan nan nan nan nan nan nan nan nan nan nan nan nan nan 43 43 42 43 43 44 45 48 45 nan nan nan nan nan nan nan nan nan nan nan nan nan nan nan nan nan nan 61 61 61 59 59 59 nan
nan nan nan nan nan nan nan nan nan nan nan nan nan nan nan nan nan nan nan nan nan nan nan nan nan nan nan nan nan nan nan nan nan nan nan nan nan nan nan nan nan nan nan nan nan nan nan nan nan nan nan nan nan nan nan nan nan nan nan nan nan nan nan nan nan nan nan nan nan nan nan nan nan nan nan nan nan nan nan nan nan nan nan nan nan
Wind_Direction
280 277 276 278 277 274 273 270 267 265 252 246 251 256 256 257 258 256 253 253 256 254 262 267 266 253 249 246 242 246 269 285 283 276 289 299 293 296 295 287 280 273 nan 272 269 265 265 263 265 269 273 275 nan nan nan nan nan nan nan nan nan nan nan nan nan nan nan nan nan nan nan nan nan nan nan nan nan nan nan nan nan nan nan nan nan
278 275 278 279 278 277 272 269 268 258 252 250 252 257 259 257 256 254 253 256 255 262 273 272 271 266 242 238 245 252 263 280 272 260 274 297 301 298 300 296 293 288 286 286 280 271 270 268 267 266 273 280 281 nan nan nan nan nan nan nan nan nan nan nan nan nan nan nan nan nan nan nan nan nan nan nan nan nan nan nan nan nan nan nan nan
279 277 275 277 276 278 277 274 271 262 253 250 250 255 nan nan 262 261 254 256 260 262 267 267 271 267 241 233 245 258 264 269 265 256 261 283 296 295 293 296 299 297 293 290 285 280 275 273 275 282 280 283 289 284 280 nan nan nan nan nan nan nan nan nan nan nan nan nan nan nan nan nan nan nan nan nan nan nan nan nan nan nan nan nan nan
280 276 276 276 276 277 275 275 272 259 251 241 239 nan nan nan nan 251 260 261 255 253 258 266 268 260 243 235 238 255 259 262 265 258 253 270 290 285 280 289 290 284 282 282 274 270 262 257 257 268 283 283 284 280 278 nan nan nan nan nan nan nan nan nan nan nan nan nan nan nan nan nan nan nan nan nan nan nan nan nan nan nan nan nan nan
279 279 276 272 272 272 269 268 261 251 246 nan 234 241 246 249 249 257 258 257 257 256 255 255 254 241 nan 250 253 261 264 264 266 267 263 267 283 283 277 277 275 282 278 259 247 242 250 253 257 262 267 275 274 273 279 280 280 nan nan nan nan nan nan nan nan nan nan nan nan nan nan nan nan nan nan nan nan nan nan nan nan nan nan nan nan
281 278 271 267 265 264 262 254 250 247 243 238 236 245 249 252 255 253 252 259 263 263 265 256 239 nan nan 246 253 261 259 251 256 271 265 262 279 282 280 267 259 259 259 264 262 251 245 242 239 242 256 265 268 273 270 271 279 286 nan nan nan nan nan nan nan nan nan nan nan nan nan nan nan nan nan nan nan nan nan nan nan nan nan nan nan
280 278 271 265 260 258 257 256 250 244 242 236 239 237 244 250 253 250 248 254 259 260 255 248 247 nan nan 247 255 257 253 254 252 262 265 266 276 280 275 265 253 251 248 238 250 249 246 237 228 229 225 238 260 275 274 282 284 293 297 nan nan nan nan nan nan nan nan nan nan nan nan nan nan nan nan nan nan nan nan nan nan nan nan nan nan
282 280 272 263 260 258 261 253 253 246 237 235 239 240 242 248 250 254 251 252 258 251 242 243 247 251 247 251 255 258 263 259 259 271 272 276 279 278 271 259 254 253 251 236 232 238 245 232 221 211 208 210 230 244 269 289 298 299 308 311 nan nan nan nan nan nan nan nan nan nan nan nan nan nan nan nan nan nan nan nan nan nan nan nan nan
291 291 277 263 257 260 258 249 245 239 226 232 238 241 243 249 243 239 251 252 254 251 244 246 251 250 nan 253 258 267 264 258 269 286 284 282 281 276 271 261 264 267 242 234 220 209 224 218 212 203 199 196 198 238 255 289 309 312 315 316 319 318 316 nan nan 308 nan nan nan nan nan nan nan nan nan nan nan nan nan nan nan nan nan nan nan
296 281 262 253 251 252 252 247 244 238 222 215 243 242 240 248 244 230 238 247 245 nan 253 251 251 nan 252 249 246 248 256 259 271 275 277 281 277 273 273 265 259 251 241 224 211 213 212 213 207 200 197 193 200 209 239 258 287 320 313 316 321 326 325 321 315 312 308 nan nan nan nan nan nan nan nan nan nan nan nan nan nan nan nan nan nan
288 268 262 270 248 235 234 233 233 227 225 228 226 239 237 237 247 234 223 228 245 246 253 255 nan nan 249 252 252 247 244 256 262 273 266 277 279 270 266 267 256 241 232 221 217 222 nan nan nan 200 196 209 210 214 224 241 259 284 304 326 320 328 331 330 326 321 318 nan nan nan nan nan nan nan nan nan nan nan nan nan nan nan nan nan nan
285 276 239 221 228 218 221 220 225 221 225 238 236 233 241 243 247 244 236 230 229 240 248 256 254 nan 250 247 247 254 262 252 266 268 269 275 267 271 277 262 250 238 227 218 217 nan nan nan 218 212 206 209 212 213 222 240 262 281 292 304 318 328 332 330 333 325 318 318 311 303 301 nan nan nan nan nan nan nan nan nan nan nan nan nan nan
277 282 275 239 221 219 225 223 220 218 227 246 243 232 231 239 242 232 241 240 231 nan 248 nan 267 254 248 247 247 236 243 258 269 273 271 268 273 281 278 263 243 239 234 nan nan nan nan nan 226 216 212 210 208 213 227 243 258 278 284 291 301 314 316 322 322 320 321 318 308 300 nan 289 288 294 315 324 318 310 307 nan nan nan nan nan nan
283 274 266 249 234 227 227 228 226 218 221 231 221 215 230 240 244 235 225 246 246 nan 266 nan 261 273 270 250 244 247 230 231 237 252 257 257 264 275 273 258 245 223 226 220 204 211 219 221 220 220 219 220 220 220 227 237 249 263 274 279 285 291 299 301 306 308 309 311 308 299 295 288 283 nan 279 278 278 285 293 303 309 nan nan nan nan
282 274 263 251 240 231 229 231 229 224 229 232 227 204 236 250 252 246 241 225 237 nan nan nan nan 257 251 253 256 nan nan 232 230 240 254 257 259 259 247 229 217 215 234 231 207 207 220 219 223 227 226 229 231 234 237 249 258 266 271 278 284 288 293 297 297 299 299 301 295 288 286 nan nan nan nan nan nan nan nan nan 309 313 311 nan nan
286 273 253 243 237 235 234 235 230 226 234 241 237 220 234 247 248 243 248 256 nan 256 nan 229 nan nan nan 236 nan nan nan 240 244 228 232 244 244 245 229 224 214 209 224 241 222 221 228 229 232 nan nan nan 234 236 239 247 260 260 268 275 282 285 288 290 291 291 289 288 286 nan nan nan nan nan nan nan nan nan nan 295 303 303 302 nan nan
272 259 243 237 235 241 241 238 231 226 231 240 234 232 240 254 260 252 256 270 nan nan 248 224 253 nan nan nan nan nan nan nan 246 226 218 220 215 249 nan 208 225 209 214 237 239 239 241 239 nan nan 233 234 237 239 242 246 252 260 265 271 279 282 284 285 286 285 286 nan nan nan nan nan nan nan nan nan nan nan nan nan nan nan nan nan nan
252 239 230 239 244 247 243 238 225 226 230 236 233 233 238 246 252 257 257 257 nan nan 257 223 237 225 nan nan nan nan nan nan 259 nan 221 207 211 223 nan 216 228 217 232 240 250 246 nan nan nan nan nan nan nan nan nan nan nan nan nan nan 272 282 nan nan nan 287 nan nan nan nan nan nan nan nan nan nan nan nan nan nan nan nan nan nan nan
240 234 230 236 239 242 242 235 226 230 236 242 245 252 250 248 245 249 251 251 250 269 268 250 233 nan 219 228 nan 232 nan nan nan nan 240 222 218 213 210 216 221 226 239 247 nan nan nan nan nan nan nan nan nan nan nan nan nan nan nan nan nan nan nan nan nan nan nan nan nan nan nan nan nan nan nan nan nan nan nan nan nan nan nan nan nan
244 239 240 240 240 242 235 231 230 235 245 253 255 250 248 245 247 248 241 242 257 267 261 250 272 234 229 236 226 242 nan nan 245 253 nan nan nan 219 220 221 221 214 240 nan nan nan nan nan nan nan nan nan nan nan nan nan nan nan nan nan nan nan nan nan nan nan nan nan nan nan nan nan nan nan nan nan nan nan nan nan nan nan nan nan nan
244 247 257 260 252 240 234 234 236 240 246 251 251 255 261 260 255 254 252 245 249 245 257 257 243 245 242 230 243 251 nan nan nan nan nan nan nan nan nan nan nan nan 242 243 254 255 nan nan nan nan nan nan nan nan nan nan nan nan nan nan nan nan nan nan nan nan nan nan nan nan nan nan nan nan nan nan nan nan nan nan nan nan nan nan nan
242 244 250 250 243 235 238 242 243 245 242 250 256 258 256 262 268 261 253 251 244 248 257 254 246 241 241 252 248 248 nan nan nan nan nan nan nan nan nan nan nan nan 238 251 257 252 nan nan nan nan nan nan nan nan nan nan nan nan nan nan nan nan nan nan nan nan nan nan nan nan nan nan nan nan nan nan nan nan nan nan nan nan nan nan nan
240 240 244 244 235 233 240 241 246 244 241 245 255 261 261 263 262 257 252 251 245 242 234 245 252 250 247 260 263 271 nan nan nan nan nan nan nan nan nan nan nan nan nan nan nan nan nan nan nan nan nan nan nan nan nan nan nan nan nan nan nan nan nan nan nan nan nan nan nan nan nan nan nan nan nan nan nan nan nan nan nan nan nan nan nan
235 237 239 241 240 237 236 238 244 245 246 249 251 257 260 257 256 261 256 246 243 244 243 254 255 254 253 256 nan nan nan nan 261 nan nan nan nan nan nan nan nan nan nan nan nan nan nan nan nan nan nan nan nan nan nan nan nan nan nan nan nan nan nan nan nan nan nan nan nan nan nan nan nan nan nan nan nan nan nan nan nan nan nan nan nan
235 241 241 248 248 248 248 250 250 251 254 255 254 257 262 260 260 258 258 257 257 259 259 264 261 262 261 252 nan nan nan nan nan nan nan nan nan nan nan nan nan nan nan nan nan nan nan nan nan nan nan nan nan nan nan nan nan nan nan nan nan nan nan nan nan nan nan nan nan nan nan nan nan nan nan nan nan nan nan nan nan nan nan nan nan
239 242 245 245 251 255 260 260 257 259 259 258 260 257 257 259 259 257 264 262 254 262 264 260 256 256 255 257 nan nan nan nan nan nan nan nan nan nan nan nan nan nan nan nan nan nan nan nan nan nan nan nan nan nan nan nan nan nan nan nan nan nan nan nan nan nan nan nan nan nan nan nan nan nan nan nan nan nan nan nan nan nan nan nan nan
239 239 247 255 256 258 263 266 264 265 260 257 259 258 255 254 254 251 256 258 256 257 256 259 260 257 251 254 nan nan nan nan nan nan nan nan nan nan nan nan nan nan nan nan nan nan nan nan nan nan nan nan nan nan nan nan nan nan nan nan nan nan nan nan nan nan nan nan nan nan nan nan nan nan nan nan nan nan nan nan nan nan nan nan nan
231 241 255 272 278 276 270 267 267 263 258 259 259 261 261 261 256 256 258 251 258 258 257 260 259 258 255 246 nan nan nan nan nan nan 253 nan nan nan nan nan nan nan nan nan nan nan nan nan nan nan nan nan nan nan nan nan nan nan nan nan nan nan nan nan nan nan nan nan nan nan nan nan nan nan nan nan nan nan nan nan nan nan nan nan nan
242 242 260 269 278 277 272 272 270 262 258 258 257 259 261 263 263 263 262 254 260 261 256 260 255 252 249 251 nan nan nan 239 nan 246 249 nan nan nan nan nan nan nan nan nan nan nan nan nan nan nan nan nan nan nan nan nan nan nan nan nan nan nan nan nan nan nan nan nan nan nan nan nan nan nan nan nan nan nan nan nan nan nan nan nan nan
252 248 254 264 268 275 276 275 271 266 264 258 254 255 258 262 264 263 258 257 255 248 245 249 247 242 241 237 229 nan nan nan nan nan 243 245 nan nan nan nan nan nan nan nan nan nan nan nan nan nan nan nan nan nan nan nan nan nan nan nan nan nan nan nan nan nan nan nan nan nan nan nan nan nan nan nan nan nan nan nan nan nan nan nan nan
260 258 258 261 267 274 277 276 272 270 262 258 254 253 254 259 260 258 250 247 244 243 236 238 235 236 235 232 225 227 nan nan nan nan nan nan nan nan nan nan nan nan nan nan nan nan nan nan nan nan nan nan nan nan nan nan nan nan nan nan nan nan nan nan nan nan nan nan nan nan nan nan nan nan nan nan nan nan nan nan nan nan nan nan nan
265 265 264 264 270 277 277 279 275 268 264 258 256 253 251 250 254 248 240 237 234 236 232 224 227 227 229 226 224 229 226 nan nan 216 222 223 nan nan nan nan nan nan nan nan nan nan nan nan nan nan nan nan nan nan nan nan nan nan nan nan nan nan nan nan nan nan nan nan nan nan nan nan nan nan nan nan nan nan nan nan nan nan nan nan nan
272 273 274 277 280 282 279 280 278 272 266 262 259 257 252 248 246 241 233 229 231 227 222 219 218 222 223 221 219 218 223 227 nan 216 219 223 225 nan 232 nan nan nan nan nan nan nan nan nan nan nan nan nan nan nan nan nan nan nan nan nan nan nan nan nan nan nan nan nan nan nan nan nan nan nan nan nan nan nan nan nan nan nan nan nan nan
270 274 278 281 284 286 285 284 281 276 270 265 264 262 260 252 245 239 234 230 226 223 216 216 215 217 219 223 216 216 222 229 226 222 223 231 235 235 233 242 nan nan nan nan nan nan nan nan nan nan nan nan nan nan nan nan nan nan nan nan nan nan nan nan nan nan nan nan nan nan nan nan nan nan nan nan nan nan nan nan nan nan nan nan nan
259 267 271 277 282 283 284 285 284 282 277 270 266 265 263 258 252 243 240 236 232 230 223 217 218 218 223 227 225 227 229 231 231 228 230 235 236 237 238 241 nan nan nan nan nan nan nan nan nan nan nan nan nan nan nan nan nan nan nan nan nan nan nan nan nan nan nan nan nan nan nan nan nan nan nan nan nan nan nan nan nan nan nan nan nan
nan nan 258 262 265 273 278 279 280 280 276 270 266 263 263 262 255 251 248 242 234 229 228 225 225 226 230 235 232 235 236 238 235 233 232 234 237 235 239 239 245 nan nan nan nan nan nan nan nan nan nan nan nan nan nan nan nan nan nan nan nan nan nan nan nan nan nan nan nan nan nan nan nan nan nan nan nan nan nan nan nan nan nan nan nan
nan nan nan 250 259 266 273 273 270 269 271 271 271 264 259 259 259 255 249 241 233 226 225 228 230 233 235 238 238 240 245 246 235 235 233 235 236 238 238 243 245 nan nan nan nan nan nan nan nan nan nan nan nan nan nan nan nan nan nan nan nan nan nan nan nan nan nan nan nan nan nan nan nan nan nan nan nan nan nan nan nan nan nan nan nan
242 nan nan nan nan 264 265 264 262 260 260 268 272 271 268 264 263 260 252 239 227 225 226 227 231 235 237 238 239 244 249 250 239 230 231 232 235 234 232 235 242 nan nan nan nan nan nan nan nan nan nan nan nan nan nan nan nan nan nan nan nan nan nan nan nan nan nan nan nan nan nan nan nan nan nan nan nan nan nan nan nan nan nan nan nan
nan nan nan nan nan nan nan 256 256 256 nan nan 251 255 259 262 265 261 249 234 225 227 233 239 238 238 236 237 240 243 245 243 243 235 234 234 238 238 238 nan nan nan nan nan nan nan nan nan nan nan nan nan nan nan nan nan nan nan nan nan nan nan nan nan nan nan nan nan nan nan nan nan nan nan nan nan nan nan nan nan nan nan nan nan nan
nan nan nan nan nan nan nan nan nan nan nan nan nan 240 246 254 256 254 249 242 238 240 244 245 247 248 243 239 242 244 246 245 245 240 243 243 239 244 235 nan nan nan nan nan nan nan nan nan nan nan nan nan nan nan nan nan nan nan nan nan nan nan nan nan nan nan nan nan nan nan nan nan nan nan nan nan nan nan nan nan nan nan nan nan nan
nan nan nan nan nan nan nan nan nan nan nan nan nan nan nan nan nan nan nan 256 259 260 nan 257 254 255 251 245 244 247 251 254 254 248 252 254 250 249 nan nan nan nan nan nan nan nan nan nan nan nan nan nan nan nan nan nan nan nan nan nan nan nan nan nan nan nan nan nan nan nan nan nan nan nan nan nan nan nan nan nan nan nan nan nan nan
nan nan nan nan nan nan nan nan nan nan nan nan nan nan nan nan nan nan nan nan nan nan nan nan 262 254 246 244 241 248 256 260 259 260 261 253 nan nan nan nan nan nan nan nan nan nan nan nan nan nan nan nan nan nan nan nan nan nan nan nan nan nan nan nan nan nan nan nan nan nan nan nan nan nan nan nan nan nan nan nan nan nan nan nan nan
nan nan nan nan nan nan nan nan nan nan nan nan nan nan nan nan nan nan nan nan nan nan nan 272 268 258 251 247 246 243 241 239 245 251 253 253 nan nan nan nan nan nan nan nan nan nan nan nan nan nan nan nan nan nan nan nan nan nan nan nan nan nan nan nan nan nan nan nan nan nan nan nan nan nan nan nan nan nan nan nan nan nan nan nan nan
nan nan nan nan nan nan nan nan nan nan nan nan nan nan nan nan nan nan nan nan nan nan nan 265 264 262 nan nan nan nan nan nan nan 242 244 246 246 nan nan nan nan nan nan nan nan nan nan nan nan nan nan nan nan nan nan nan nan nan nan nan nan nan nan nan nan nan nan nan nan nan nan nan nan nan nan nan nan nan nan nan nan nan nan nan nan
nan nan nan nan nan nan nan nan nan nan nan nan nan nan nan nan nan nan nan nan nan nan nan nan nan nan nan nan nan nan nan nan nan nan nan 246 246 nan nan nan nan nan nan nan nan nan nan nan nan nan nan nan nan nan nan nan nan nan nan nan nan nan nan nan nan nan nan nan nan nan nan nan nan nan nan nan nan nan nan nan nan nan nan nan nan
nan nan nan nan nan nan nan nan nan nan nan nan nan nan nan nan nan nan nan nan nan nan nan nan nan nan nan nan nan nan nan nan nan nan nan nan nan nan nan nan nan nan nan nan nan nan nan nan nan nan nan nan nan nan nan nan nan nan nan nan nan nan nan nan nan nan 289 nan nan nan nan nan nan nan nan nan nan nan nan nan nan nan nan nan nan
nan nan nan nan nan nan nan nan nan nan nan nan nan nan nan nan nan nan nan nan nan nan nan nan nan nan nan nan nan nan nan nan nan nan nan nan nan nan nan nan nan nan nan nan nan nan nan nan nan nan nan nan nan nan 272 274 277 nan 282 284 284 nan nan nan nan nan nan nan nan nan nan nan nan nan nan nan nan nan nan 297 299 nan 303 nan nan
nan nan nan nan nan nan nan nan nan nan nan nan nan nan nan nan nan nan nan nan nan nan nan nan nan nan nan nan nan nan nan nan nan nan nan nan nan nan nan nan nan nan nan nan nan nan nan nan nan nan nan nan nan nan nan nan 280 281 nan nan nan nan nan nan nan nan nan nan nan nan nan nan nan nan nan nan nan nan nan nan 289 290 289 287 290
nan nan nan nan nan nan nan nan nan nan nan nan nan nan nan nan nan nan nan nan nan nan nan nan nan nan nan nan nan nan nan nan nan nan nan nan nan nan nan nan nan nan nan nan nan nan 263 269 nan 269 nan 270 269 271 274 279 282 284 283 nan 278 nan nan nan nan nan nan nan nan nan nan nan nan nan nan nan nan nan nan 290 289 291 295 297 nan
nan nan nan nan nan nan nan nan nan nan nan nan nan nan nan nan nan nan nan nan nan nan nan nan nan nan nan nan nan nan nan nan nan nan nan nan nan nan nan nan nan nan nan nan nan nan nan nan nan nan nan 268 268 269 269 267 271 281 281 280 nan nan nan nan nan nan nan nan nan nan nan nan nan nan nan nan nan nan 289 288 288 287 288 288 nan
nan nan nan nan nan nan nan nan nan nan nan nan nan nan nan nan nan nan nan nan nan nan nan nan nan nan nan nan nan nan nan nan nan nan nan nan nan nan nan nan nan nan nan nan nan nan nan nan nan nan nan nan nan nan nan nan nan nan nan nan nan nan nan nan nan nan nan nan nan nan nan nan nan nan nan nan nan nan nan nan nan nan nan nan nan